Regional Weather Roundup
Issued by NWS

Home | Current Version | Previous Version | Graphics & Text | Print | Product List | Glossary On
Versions: 1 2 3 4 5 6 7 8 9 10 11 12 13 14 15 16 17 18 19 20 21 22 23 24 25 26 27 28 29 30 31 32 33 34 35 36 37 38 39 40 41 42 43 44 45 46 47 48 49 50
000
ASUS43 KBIS 240910
RWRND

NORTH DAKOTA REGIONAL WEATHER ROUNDUP
NATIONAL WEATHER SERVICE BISMARCK ND
400 AM CDT SAT JUN 24 2017

NOTE: "FAIR" INDICATES FEW OR NO CLOUDS BELOW 12,000 FEET WITH NO
SIGNIFICANT WEATHER AND/OR OBSTRUCTIONS TO VISIBILITY.


NDZ001>003-009>011-017-241000-
NORTHWEST NORTH DAKOTA

CITY           SKY/WX    TMP DP  RH WIND       PRES   REMARKS
WILLISTON      CLEAR     48  35  60 NW13      30.19R
MINOT          CLEAR     46  41  82 W12       30.09S
MINOT AFB      CLEAR     44  41  89 NW12      30.09R
$$

NDZ018>021-031>035-040>046-241000-
SOUTHWEST NORTH DAKOTA

CITY           SKY/WX    TMP DP  RH WIND       PRES   REMARKS
BISMARCK       CLOUDY    50  41  71 NW8       30.11S
DICKINSON      CLOUDY    47  33  58 NW9       30.16R
GARRISON         N/A     47  41  80 NW14      30.10S
HETTINGER ARPT PTCLDY    40  31  70 W8        30.18F
$$

NDZ004>008-012>016-024-026-027-054-241000-
NORTHEAST NORTH DAKOTA

CITY           SKY/WX    TMP DP  RH WIND       PRES   REMARKS
GRAND FORKS    MOCLDY    50  43  77 W10       29.96S
GRND FRKS AFB  PTCLDY    47  41  79 NW7       29.96F
DEVILS LAKE    CLOUDY    49  41  74 NW15      30.01S
$$

NDZ022-023-025-028>030-036>039-047>053-241000-
SOUTHEAST NORTH DAKOTA

CITY           SKY/WX    TMP DP  RH WIND       PRES   REMARKS
FARGO          CLEAR     46  39  76 W9        30.00R
JAMESTOWN      CLOUDY    50  40  68 NW15G25   30.04R
$$




USA.gov is the U.S. government's official web portal to all federal, state and local government web resources and services.